Location: �bnet
(46.9957°N, 8.4908°E)
Time: 01:22:54
(UTC+00:00)

DNEPR-1 R/B - Pass Details

Date: 11 May 2021
Orbit: 587 x 1334 km, 64.6° (Epoch: 23 June)

Event Time Altitude Azimuth Distance (km) Brightness Sun altitude
Exits shadow 22:34:44 43° 223° (SW) 1,158 4.6 -24.0°
Maximum altitude 22:36:38 84° 306° (NW) 808 4.0 -24.1°
Drops below altitude 10° 22:41:37 10° 37° (NE) 2,179 6.9 -24.2°
Sets 22:43:45 0° 38° (NE) 3,022 7.7 -24.3°
